IW1QQG-13 Weather Reports


time (UTC)temp
C
wind
direction
speed
KPH
gust
KPH
rain 1hr
cm
rain 24hr
cm
rain mn
cm
humidity
%
barometer
mb
20260510104618 17 180 4.8 4.8 0.00 0.00 0.00 78 1009.5
20260510103618 18 212 3.2 4.8 0.00 0.00 0.00 66 1009.5
20260510102619 18 259 3.2 3.2 0.00 0.00 0.00 64 1009.5
20260510101619 18 142 3.2 3.2 0.00 0.00 0.00 65 1009.5
20260510100618 18 277 6.4 11.3 0.00 0.00 0.00 63 1009.5
20260510095618 18 211 1.6 3.2 0.00 0.00 0.00 65 1009.1
20260510094618 17 357 12.9 20.9 0.00 0.00 0.00 67 1009.5
20260510093619 17 331 4.8 9.7 0.00 0.00 0.00 69 1009.5
20260510092618 18 185 1.6 4.8 0.00 0.00 0.00 63 1009.5
20260510091619 18 70 4.8 9.7 0.00 0.00 0.00 63 1009.5
20260510090618 18 150 9.7 14.5 0.00 0.00 0.00 62 1009.5
20260510085618 18 154 4.8 4.8 0.00 0.00 0.00 62 1009.8
20260510084618 18 166 4.8 4.8 0.00 0.00 0.00 62 1009.5
20260510083618 18 127 3.2 6.4 0.00 0.00 0.00 63 1009.5
20260510082618 18 27 6.4 6.4 0.00 0.00 0.00 65 1009.5
20260510081618 18 29 1.6 3.2 0.00 0.00 0.00 64 1009.5
20260510080618 18 206 3.2 3.2 0.00 0.00 0.00 64 1009.5
20260510075618 17 87 1.6 4.8 0.00 0.00 0.00 67 1009.5
20260510074618 17 149 4.8 6.4 0.00 0.00 0.00 65 1009.1
20260510073618 18 0 4.8 4.8 0.00 0.00 0.00 62 1009.1
20260510072618 18 129 8.0 9.7 0.00 0.00 0.00 62 1009.5
20260510071618 17 193 3.2 3.2 0.00 0.00 0.00 62 1009.1
20260510070618 17 201 6.4 6.4 0.00 0.00 0.00 61 1009.1
20260510065618 18 165 8.0 16.1 0.00 0.00 0.00 60 1009.1
20260510064618 18 66 4.8 4.8 0.00 0.00 0.00 60 1009.1
20260510063618 18 340 4.8 4.8 0.00 0.00 0.00 59 1009.1
20260510062618 18 173 4.8 9.7 0.00 0.00 0.00 60 1009.1
20260510061618 18 135 6.4 11.3 0.00 0.00 0.00 57 1009.1
20260510060618 18 155 4.8 4.8 0.00 0.00 0.00 57 1009.1
20260510055618 18 167 4.8 4.8 0.00 0.00 0.00 60 1009.1
20260510054618 18 277 4.8 6.4 0.00 0.00 0.00 60 1008.8
20260510053618 18 232 4.8 4.8 0.00 0.00 0.00 59 1008.8
20260510052618 17 227 8.0 12.9 0.00 0.00 0.00 60 1008.8
20260510051618 18 217 1.6 3.2 0.00 0.00 0.00 59 1008.8
20260510050618 17 305 1.6 3.2 0.00 0.00 0.00 59 1008.8
20260510045618 17 128 4.8 4.8 0.00 0.00 0.00 60 1008.8
20260510044618 17 131 11.3 14.5 0.00 0.00 0.00 58 1008.8
20260510043618 17 197 3.2 4.8 0.00 0.00 0.00 58 1008.5
20260510042618 18 153 3.2 8.0 0.00 0.00 0.00 58 1008.5
20260510041618 18 99 4.8 11.3 0.00 0.00 0.00 57 1008.8
20260510040618 18 156 4.8 9.7 0.00 0.00 0.00 56 1008.8
20260510035618 18 54 1.6 1.6 0.00 0.00 0.00 56 1008.8
20260510034618 18 173 3.2 3.2 0.00 0.00 0.00 56 1008.8
20260510033618 18 13 4.8 16.1 0.00 0.00 0.00 55 1009.1
20260510032618 18 241 3.2 6.4 0.00 0.00 0.00 56 1009.1
20260510031618 18 109 1.6 3.2 0.00 0.00 0.00 56 1009.1
20260510030618 18 21 6.4 6.4 0.00 0.00 0.00 56 1009.1
20260510025618 18 347 3.2 3.2 0.00 0.00 0.00 55 1009.5
20260510024618 18 305 9.7 11.3 0.00 0.00 0.00 54 1009.5
20260510023618 18 166 4.8 6.4 0.00 0.00 0.00 54 1009.5
20260510022618 18 355 4.8 6.4 0.00 0.00 0.00 54 1009.5
20260510021621 18 354 6.4 6.4 0.00 0.00 0.00 53 1009.5
20260510020618 19 31 1.6 3.2 0.00 0.00 0.00 52 1009.5
20260510015618 18 183 1.6 1.6 0.00 0.00 0.00 52 1009.5
20260510014618 19 230 4.8 16.1 0.00 0.00 0.00 52 1009.5
20260510013618 19 61 4.8 4.8 0.00 0.00 0.00 52 1009.5
20260510012618 19 39 3.2 4.8 0.00 0.00 0.00 52 1009.5
20260510011618 19 126 1.6 4.8 0.00 0.00 0.00 52 1009.5
20260510010618 19 217 1.6 1.6 0.00 0.00 0.00 51 1009.5
20260510005618 19 42 6.4 8.0 0.00 0.00 0.00 50 1009.5
20260510004618 19 152 4.8 6.4 0.00 0.00 0.00 50 1009.5
20260510003619 19 215 4.8 11.3 0.00 0.00 0.00 51 1009.5
20260510002618 19 187 4.8 8.0 0.00 0.00 0.00 50 1009.8
20260510001618 19 329 4.8 6.4 0.00 0.00 0.00 50 1009.8
20260510000618 19 185 3.2 4.8 0.00 0.00 0.00 47 1010.2
20260509235618 20 181 1.6 3.2 0.00 0.00 0.00 46 1010.2
20260509234618 20 2 1.6 3.2 0.00 0.00 0.00 46 1010.2
20260509233618 20 338 6.4 8.0 0.00 0.00 0.00 45 1010.2
20260509232618 20 19 3.2 6.4 0.00 0.00 0.00 46 1010.2
20260509231618 20 333 9.7 12.9 0.00 0.00 0.00 45 1009.8
20260509230618 20 272 4.8 6.4 0.00 0.00 0.00 44 1010.2
20260509225618 20 153 4.8 8.0 0.00 0.00 0.00 42 1010.2
20260509224618 20 28 8.0 11.3 0.00 0.00 0.00 42 1010.2
20260509223618 20 13 8.0 11.3 0.00 0.00 0.00 40 1010.2
20260509222618 20 271 3.2 3.2 0.00 0.00 0.00 43 1010.5
20260509221618 20 204 4.8 4.8 0.00 0.00 0.00 44 1010.8
20260509220618 20 225 3.2 3.2 0.00 0.00 0.00 41 1010.8
20260509215618 20 350 3.2 3.2 0.00 0.00 0.00 42 1010.8
20260509214618 20 175 3.2 3.2 0.00 0.00 0.00 42 1010.5
20260509213618 20 35 4.8 4.8 0.00 0.00 0.00 42 1010.2
20260509212616 20 133 9.7 12.9 0.00 0.00 0.00 43 1010.2
20260509211616 20 348 8.0 9.7 0.00 0.00 0.00 44 1010.2
20260509210616 20 333 6.4 8.0 0.00 0.00 0.00 44 1010.2
20260509205615 20 171 3.2 3.2 0.00 0.00 0.00 45 1010.2
20260509204616 20 359 14.5 16.1 0.00 0.00 0.00 46 1010.5
20260509203615 20 300 4.8 6.4 0.00 0.00 0.00 47 1011.2
20260509202616 20 231 9.7 12.9 0.00 0.00 0.00 47 1011.2
20260509201615 20 287 4.8 4.8 0.00 0.00 0.00 48 1011.2
20260509200615 20 64 6.4 17.7 0.00 0.00 0.00 48 1011.2
20260509195615 19 13 4.8 6.4 0.00 0.00 0.00 49 1011.2
20260509194616 19 194 0.0 1.6 0.00 0.00 0.00 49 1011.2
20260509193615 19 10 6.4 11.3 0.00 0.00 0.00 48 1010.8
20260509192616 19 142 0.0 1.6 0.00 0.00 0.00 48 1010.8
20260509191615 19 191 3.2 3.2 0.00 0.00 0.00 47 1010.8
20260509190615 19 180 3.2 3.2 0.00 0.00 0.00 47 1010.8
20260509185615 18 184 0.0 1.6 0.00 0.00 0.00 50 1010.8
20260509184615 19 190 1.6 3.2 0.00 0.00 0.00 48 1010.5
20260509183615 19 184 1.6 1.6 0.00 0.00 0.00 49 1010.2
20260509182615 19 134 4.8 6.4 0.00 0.00 0.00 51 1010.2
20260509181615 19 203 1.6 1.6 0.00 0.00 0.00 49 1010.2
20260509180615 20 183 3.2 4.8 0.00 0.00 0.00 50 1010.2
20260509175615 19 178 1.6 3.2 0.00 0.00 0.00 53 1010.2
20260509174615 19 236 1.6 3.2 0.00 0.00 0.00 54 1010.2
20260509173615 20 206 0.0 0.0 0.00 0.00 0.00 54 1010.2
20260509172615 19 321 3.2 4.8 0.00 0.00 0.00 58 1010.2
20260509171615 19 198 0.0 1.6 0.00 0.00 0.00 62 1010.2
20260509170615 20 200 3.2 3.2 0.00 0.00 0.00 62 1010.2
20260509165618 20 191 1.6 1.6 0.00 0.00 0.00 61 1010.2
20260509164615 20 215 0.0 3.2 0.00 0.00 0.00 58 1010.2
20260509163615 20 205 1.6 1.6 0.00 0.00 0.00 53 1010.2
20260509162615 20 87 3.2 4.8 0.00 0.00 0.00 48 1010.5
20260509161615 20 97 3.2 3.2 0.00 0.00 0.00 50 1010.5
20260509160615 20 171 4.8 4.8 0.00 0.00 0.00 53 1010.5
20260509155615 20 180 4.8 4.8 0.00 0.00 0.00 47 1010.5
20260509154615 20 158 4.8 6.4 0.00 0.00 0.00 46 1010.8
20260509153615 20 180 4.8 14.5 0.00 0.00 0.00 50 1010.8
20260509152615 21 174 4.8 9.7 0.00 0.00 0.00 50 1011.2
20260509151615 21 85 1.6 3.2 0.00 0.00 0.00 54 1011.2
20260509150615 21 201 4.8 4.8 0.00 0.00 0.00 55 1011.5
20260509145615 21 168 1.6 4.8 0.00 0.00 0.00 55 1011.5
20260509144615 21 145 3.2 4.8 0.00 0.00 0.00 55 1011.9
20260509143619 21 200 4.8 4.8 0.00 0.00 0.00 55 1011.9
20260509142615 21 178 6.4 6.4 0.00 0.00 0.00 56 1011.9
20260509141615 21 208 3.2 4.8 0.00 0.00 0.00 56 1011.9
20260509140615 21 189 3.2 3.2 0.00 0.00 0.00 57 1012.2
20260509135615 21 75 0.0 3.2 0.00 0.00 0.00 58 1012.2
20260509134615 21 182 3.2 4.8 0.00 0.00 0.00 59 1012.5
20260509133615 21 136 1.6 3.2 0.00 0.00 0.00 61 1012.9
20260509132615 21 156 4.8 6.4 0.00 0.00 0.00 61 1012.9
20260509131615 21 150 4.8 6.4 0.00 0.00 0.00 61 1012.9
20260509130615 21 137 1.6 3.2 0.00 0.00 0.00 63 1012.9
20260509125615 21 159 4.8 4.8 0.00 0.00 0.00 63 1013.2
20260509124615 21 108 4.8 8.0 0.00 0.00 0.00 61 1013.2
20260509123615 22 192 3.2 3.2 0.00 0.00 0.00 60 1012.9
20260509122616 21 133 4.8 4.8 0.00 0.00 0.00 62 1012.9
20260509121615 21 106 3.2 3.2 0.00 0.00 0.00 63 1013.2
20260509120615 21 103 3.2 8.0 0.00 0.00 0.00 65 1013.2
20260509115615 21 215 4.8 4.8 0.00 0.00 0.00 62 1013.5
20260509114620 21 196 4.8 6.4 0.00 0.00 0.00 63 1013.5
20260509113615 21 200 6.4 6.4 0.00 0.00 0.00 63 1013.5
20260509112615 21 168 1.6 3.2 0.00 0.00 0.00 65 1013.5
20260509111615 21 135 3.2 4.8 0.00 0.00 0.00 64 1013.9
20260509110615 21 115 4.8 4.8 0.00 0.00 0.00 63 1013.9
20260509105615 22 129 1.6 1.6 0.00 0.00 0.00 61 1013.9